When you browse on this site, cookies collect data to enhance your experience and personalize the content and advertising you see.
Visit our Privacy Policy to learn more. By continuing to use the site, you agree to this use of cookies and data.
  • In Lithuania
  • List of Countries
  • For 7 days
  • Water Temperature
  • Satellite Maps
  • Weather Map
  • Weather Widgets
  • user-avatar
    Login

    Hourly Weather Canberra

    Today, 19 May, Sunday

    Time Temperature Precipitation Wind Pressure Humidity
    00:00 +9°C° 0 mm 1 mps 719 mmHg 76%
    01:00 +9°C° 0 mm 1 mps 719 mmHg 81%
    02:00 +9°C° 0 mm 1 mps 719 mmHg 83%
    03:00 +10°C° 0 mm 1 mps 719 mmHg 85%
    04:00 +11°C° 0 mm 1 mps 719 mmHg 89%
    05:00 +11°C° 0 mm 1 mps 719 mmHg 90%
    06:00 +10°C° 0 mm 0 mps 719 mmHg 92%
    07:00 +10°C° 0 mm 0 mps 719 mmHg 93%
    08:00 +12°C° 0 mm 0 mps 719 mmHg 88%
    09:00 +14°C° 0 mm 1 mps 719 mmHg 83%
    10:00 +16°C° 0 mm 1 mps 719 mmHg 79%
    11:00 +18°C° 0 mm 1 mps 719 mmHg 72%
    12:00 +19°C° 0 mm 1 mps 719 mmHg 65%
    13:00 +20°C° 0 mm 1 mps 718 mmHg 58%
    14:00 +20°C° 0 mm 1 mps 718 mmHg 59%
    15:00 +19°C° 0 mm 1 mps 717 mmHg 60%
    16:00 +18°C° 0 mm 1 mps 717 mmHg 63%
    17:00 +16°C° 0 mm 1 mps 717 mmHg 68%
    18:00 +14°C° 0 mm 1 mps 717 mmHg 74%
    19:00 +12°C° 0 mm 1 mps 717 mmHg 80%
    20:00 +12°C° 0 mm 1 mps 717 mmHg 82%
    21:00 +11°C° 0 mm 1 mps 717 mmHg 84%
    22:00 +11°C° 0 mm 1 mps 717 mmHg 86%
    23:00 +9°C° 0 mm 0 mps 717 mmHg 88%

    Tomorrow, 20 May, Monday

    Time Temperature Precipitation Wind Pressure Humidity
    00:00 +9°C° 0 mm 0 mps 717 mmHg 89%
    01:00 +8°C° 0 mm 0 mps 716 mmHg 91%
    02:00 +8°C° 0 mm 0 mps 716 mmHg 91%
    03:00 +8°C° 0 mm 0 mps 716 mmHg 91%
    04:00 +8°C° 0 mm 0 mps 716 mmHg 92%
    05:00 +8°C° 0 mm 0 mps 716 mmHg 92%
    06:00 +8°C° 0 mm 0 mps 716 mmHg 92%
    07:00 +8°C° 0 mm 0 mps 716 mmHg 91%
    08:00 +11°C° 0 mm 1 mps 716 mmHg 82%
    09:00 +14°C° 0 mm 1 mps 716 mmHg 73%
    10:00 +16°C° 0 mm 2 mps 716 mmHg 64%
    11:00 +17°C° 0 mm 2 mps 716 mmHg 60%
    12:00 +19°C° 0 mm 3 mps 715 mmHg 55%
    13:00 +20°C° 0 mm 4 mps 715 mmHg 50%
    14:00 +20°C° 0 mm 4 mps 715 mmHg 53%
    15:00 +19°C° 0 mm 3 mps 714 mmHg 55%
    16:00 +19°C° 0 mm 3 mps 714 mmHg 58%
    17:00 +17°C° 0 mm 2 mps 714 mmHg 66%
    18:00 +15°C° 0 mm 2 mps 714 mmHg 74%
    19:00 +13°C° 0 mm 1 mps 714 mmHg 83%
    20:00 +12°C° 0 mm 1 mps 714 mmHg 84%
    21:00 +12°C° 0 mm 1 mps 714 mmHg 85%
    22:00 +11°C° 0 mm 1 mps 714 mmHg 87%
    23:00 +11°C° 0 mm 1 mps 714 mmHg 86%

    Day after tomorrow, 21 May, Tuesday

    Time Temperature Precipitation Wind Pressure Humidity
    00:00 +11°C° 0 mm 1 mps 714 mmHg 86%
    01:00 +10°C° 0 mm 1 mps 713 mmHg 86%
    02:00 +10°C° 0 mm 1 mps 713 mmHg 85%
    03:00 +10°C° 0 mm 1 mps 713 mmHg 83%
    04:00 +11°C° 0 mm 1 mps 713 mmHg 82%
    05:00 +10°C° 0 mm 1 mps 714 mmHg 84%
    06:00 +10°C° 0 mm 1 mps 714 mmHg 85%
    07:00 +9°C° 0 mm 1 mps 714 mmHg 87%
    08:00 +12°C° 0 mm 2 mps 714 mmHg 78%
    09:00 +14°C° 0 mm 2 mps 715 mmHg 70%
    10:00 +16°C° 0 mm 3 mps 716 mmHg 61%
    11:00 +18°C° 0 mm 4 mps 715 mmHg 57%
    12:00 +19°C° 0 mm 4 mps 715 mmHg 53%
    13:00 +21°C° 0 mm 5 mps 715 mmHg 48%
    14:00 +20°C° 0 mm 4 mps 715 mmHg 51%
    15:00 +19°C° 0 mm 4 mps 715 mmHg 54%
    16:00 +19°C° 0 mm 3 mps 714 mmHg 56%
    17:00 +17°C° 0 mm 2 mps 715 mmHg 65%
    18:00 +15°C° 0 mm 2 mps 715 mmHg 74%
    19:00 +13°C° 0 mm 1 mps 715 mmHg 83%
    20:00 +13°C° 0 mm 1 mps 715 mmHg 85%
    21:00 +12°C° 0 mm 1 mps 715 mmHg 86%
    22:00 +11°C° 0 mm 0 mps 716 mmHg 88%
    23:00 +11°C° 0 mm 0 mps 716 mmHg 89%

    22 May, Wednesday

    Time Temperature Precipitation Wind Pressure Humidity
    00:00 +10°C° 0 mm 0 mps 715 mmHg 90%
    01:00 +10°C° 0 mm 0 mps 715 mmHg 90%
    02:00 +10°C° 0 mm 0 mps 715 mmHg 91%
    03:00 +9°C° 0 mm 0 mps 715 mmHg 92%
    04:00 +9°C° 0 mm 0 mps 715 mmHg 92%
    05:00 +9°C° 0 mm 0 mps 716 mmHg 92%
    06:00 +8°C° 0 mm 0 mps 716 mmHg 93%
    07:00 +8°C° 0 mm 0 mps 716 mmHg 93%
    08:00 +12°C° 0 mm 1 mps 717 mmHg 82%
    09:00 +14°C° 0 mm 1 mps 717 mmHg 72%
    10:00 +18°C° 0 mm 1 mps 718 mmHg 62%
    11:00 +18°C° 0 mm 2 mps 718 mmHg 53%
    12:00 +19°C° 0 mm 2 mps 717 mmHg 44%
    13:00 +20°C° 0 mm 3 mps 717 mmHg 36%
    14:00 +20°C° 0 mm 2 mps 717 mmHg 39%
    15:00 +19°C° 0 mm 2 mps 717 mmHg 42%
    16:00 +18°C° 0 mm 2 mps 717 mmHg 44%
    17:00 +16°C° 0 mm 1 mps 717 mmHg 54%
    18:00 +13°C° 0 mm 1 mps 717 mmHg 63%
    19:00 +11°C° 0 mm 1 mps 717 mmHg 72%
    20:00 +10°C° 0 mm 1 mps 717 mmHg 76%
    21:00 +10°C° 0 mm 1 mps 718 mmHg 80%
    22:00 +9°C° 0 mm 1 mps 718 mmHg 84%
    23:00 +9°C° 0 mm 1 mps 718 mmHg 86%

    23 May, Thursday

    Time Temperature Precipitation Wind Pressure Humidity
    00:00 +9°C° 0 mm 1 mps 717 mmHg 88%
    01:00 +9°C° 0 mm 1 mps 717 mmHg 91%
    02:00 +8°C° 0 mm 1 mps 717 mmHg 91%
    03:00 +8°C° 0 mm 1 mps 717 mmHg 92%
    04:00 +8°C° 0 mm 1 mps 717 mmHg 93%
    05:00 +8°C° 0 mm 1 mps 717 mmHg 93%
    06:00 +8°C° 0 mm 1 mps 718 mmHg 93%
    07:00 +7°C° 0 mm 0 mps 718 mmHg 93%
    08:00 +9°C° 0 mm 0 mps 718 mmHg 82%
    09:00 +12°C° 0 mm 0 mps 718 mmHg 71%
    10:00 +15°C° 0 mm 0 mps 718 mmHg 61%
    11:00 +18°C° 0 mm 1 mps 718 mmHg 53%
    12:00 +19°C° 0 mm 1 mps 718 mmHg 45%
    13:00 +21°C° 0 mm 1 mps 717 mmHg 37%
    14:00 +19°C° 0 mm 2 mps 717 mmHg 40%
    15:00 +19°C° 0 mm 2 mps 716 mmHg 43%
    16:00 +18°C° 0 mm 2 mps 716 mmHg 45%
    17:00 +16°C° 0 mm 1 mps 716 mmHg 53%
    18:00 +14°C° 0 mm 1 mps 716 mmHg 60%
    19:00 +11°C° 0 mm 1 mps 716 mmHg 67%
    20:00 +11°C° 0 mm 1 mps 716 mmHg 69%
    21:00 +10°C° 0 mm 1 mps 716 mmHg 71%
    22:00 +10°C° 0 mm 1 mps 716 mmHg 73%
    23:00 +10°C° 0 mm 1 mps 715 mmHg 75%

    24 May, Friday

    Time Temperature Precipitation Wind Pressure Humidity
    00:00 +8°C° 0 mm 0 mps 715 mmHg 76%
    01:00 +8°C° 0 mm 0 mps 715 mmHg 77%
    02:00 +8°C° 0 mm 0 mps 714 mmHg 77%
    03:00 +8°C° 0 mm 0 mps 714 mmHg 77%
    04:00 +7°C° 0 mm 0 mps 714 mmHg 76%
    05:00 +7°C° 0 mm 0 mps 714 mmHg 75%
    06:00 +7°C° 0 mm 0 mps 714 mmHg 74%
    07:00 +8°C° 0 mm 1 mps 714 mmHg 73%
    08:00 +10°C° 0 mm 1 mps 714 mmHg 65%
    09:00 +13°C° 0 mm 2 mps 714 mmHg 57%
    10:00 +15°C° 0 mm 2 mps 714 mmHg 49%
    11:00 +16°C° 0 mm 3 mps 714 mmHg 48%
    12:00 +17°C° 0 mm 4 mps 714 mmHg 47%
    13:00 +19°C° 0 mm 4 mps 713 mmHg 46%
    14:00 +18°C° 0 mm 3 mps 713 mmHg 50%
    15:00 +17°C° 0 mm 3 mps 713 mmHg 53%
    16:00 +17°C° 0 mm 2 mps 712 mmHg 57%
    17:00 +15°C° 0 mm 2 mps 712 mmHg 64%
    18:00 +14°C° 0 mm 1 mps 712 mmHg 70%
    19:00 +12°C° 0 mm 1 mps 712 mmHg 77%
    20:00 +12°C° 0 mm 1 mps 712 mmHg 78%
    21:00 +11°C° 0 mm 1 mps 712 mmHg 80%
    22:00 +11°C° 0 mm 1 mps 712 mmHg 82%
    23:00 +11°C° 0 mm 1 mps 712 mmHg 82%
    Show more